This is the latest recevied weather packets stored in our database for station/object KF4KUL. If no packets are shown the sender has not sent any weather packets the latest 10 day(s).
| Time | Temp. | Humidity | Pressure | Rain* | Wind** | Luminosity | Snow |
|---|---|---|---|---|---|---|---|
| 1777531189 | 23.33° C | 80% | 1012.3 hPa | 0 mm | - | - | - |
| 1777530288 | 23.33° C | 80% | 1012.4 hPa | 0 mm | - | - | - |
| 1777529387 | 22.78° C | 80% | 1012.7 hPa | 0 mm | - | - | - |
| 1777528486 | 22.22° C | 84% | 1012.8 hPa | 0 mm | - | - | - |
| 1777527585 | 22.78° C | 87% | 1013.1 hPa | 0 mm | - | - | - |
| 1777526684 | 22.22° C | 89% | 1013.2 hPa | 0 mm | - | - | - |
| 1777525783 | 22.22° C | 89% | 1013.4 hPa | 0 mm | - | - | - |
| 1777524882 | 22.22° C | 89% | 1013.4 hPa | 0 mm | - | - | - |
| 1777523981 | 22.78° C | 88% | 1013.5 hPa | 0 mm | - | - | - |
| 1777523080 | 22.78° C | 88% | 1013.8 hPa | 0 mm | - | - | - |
| 1777522179 | 22.78° C | 88% | 1013.9 hPa | 0 mm | - | - | - |
| 1777521278 | 22.78° C | 88% | 1014 hPa | 0 mm | - | - | - |
| 1777520377 | 23.33° C | 88% | 1013.9 hPa | 0 mm | - | - | - |
| 1777519476 | 23.33° C | 87% | 1014 hPa | 0 mm | - | - | - |
| 1777518575 | 23.33° C | 87% | 1014.1 hPa | 0 mm | - | - | - |
| 1777517674 | 23.33° C | 87% | 1014.2 hPa | 0 mm | - | - | - |
| 1777516773 | 23.33° C | 87% | 1014.2 hPa | 0 mm | - | - | - |
| 1777515872 | 23.33° C | 86% | 1014.1 hPa | 0 mm | - | - | - |
| 1777514971 | 23.89° C | 85% | 1013.7 hPa | 0 mm | - | - | - |
| 1777514070 | 23.89° C | 84% | 1013.5 hPa | 0 mm | - | - | - |
| 1777513169 | 23.89° C | 84% | 1013.4 hPa | 0 mm | - | - | - |
| 1777512268 | 24.44° C | 83% | 1013.3 hPa | 0 mm | - | - | - |
| 1777511367 | 24.44° C | 83% | 1013.3 hPa | 0 mm | - | - | - |
| 1777510466 | 24.44° C | 83% | 1013 hPa | 0 mm | - | - | - |
| 1777509565 | 24.44° C | 83% | 1012.9 hPa | 0 mm | - | - | - |
* Rain latest hour (hover to see other rain measurements)
** Current wind speed in m/s (hover to see current wind gust speed)